Home > Weather > Tianjin > Past weeks

Flag for China Past Weather in Tianjin, Tianjin Municipality, China — Yesterday and Last 2 Weeks

Now
88 °F

Clear.


Feels Like: 96 °F
Forecast: 78 / 94 °F
Wind: 8 mph from Southeast

Location: Tianjin / Zhangguizhu

Current Time: Jul 29, 2016 at 12:10:18 PM

Latest Report: Jul 29, 2016 at 11:30 AM


Visibility: 4 mi

Pressure: 29.68 "Hg

Humidity: 62%

Dew Point: 73 °F

Location of TianjinLocation

Past Weather in Tianjin — Graph

°F

Tianjin Temperature Yesterday

Maximum temperature yesterday: 91 °F (at 2:00 PM)
Minimum temperature yesterday: 73 °F (at 3:30 AM)
Average temperature yesterday: 84 °F

High & Low Weather Summary for the Past Weeks

 TemperatureHumidityPressure
High95 °F (Jul 24, 1:00 PM)100% (Jul 20, 9:30 AM)29.77 "Hg (Jul 20, 9:30 AM)
Low66 °F (Jul 16, 3:00 AM)33% (Jul 14, 12:00 PM)29.42 "Hg (Jul 20, 1:30 PM)
Average80 °F77%29.62 "Hg
* Reported Jul 14 11:00 AM — Jul 29 11:00 AM, Tianjin, Weather by CustomWeather, © 2016

Note: Actual official high and low records may vary slightly from our data, if they occured in-between our weather recording intervals... More about our weather records

Advertising

Tianjin Weather History for the Previous 24 Hours

Scroll right to see more
 ConditionsComfort  
Time TempWeatherWind HumidityBarometerVisibility
11:00 AM
Fri, Jul 29
88 °FPassing clouds.8 mph66%29.68 "Hg4 mi
10:30 AM88 °FHaze.6 mph66%29.68 "Hg2 mi
10:00 AM88 °FScattered clouds.6 mph66%29.68 "Hg3 mi
9:30 AM86 °FScattered clouds.6 mph70%29.68 "Hg3 mi
9:00 AM84 °FFog.8 mph74%29.65 "Hg3 mi
8:30 AM82 °FOvercast.8 mph79%29.65 "Hg4 mi
8:00 AM82 °FFog.8 mph84%29.65 "Hg3 mi
7:30 AM82 °FFog.6 mph79%29.65 "Hg2 mi
7:00 AM81 °FFog.6 mph84%29.62 "Hg2 mi
6:30 AM81 °FFog.6 mph84%29.62 "Hg2 mi
6:00 AM81 °FFog.3 mph84%29.62 "Hg2 mi
5:30 AM81 °FFog.6 mph79%29.59 "Hg2 mi
5:00 AM81 °FFog.3 mph84%29.59 "Hg2 mi
4:30 AM81 °FFog.10 mph84%29.59 "Hg2 mi
4:00 AM81 °FFog.10 mph89%29.59 "Hg2 mi
3:30 AM82 °FFog.13 mph89%29.59 "Hg1 mi
3:00 AM82 °FFog.6 mph89%29.59 "Hg1 mi
2:30 AM82 °FFog.6 mph89%29.56 "Hg1 mi
2:00 AM82 °FFog.3 mph89%29.56 "Hg1 mi
1:30 AM82 °FFog.3 mph84%29.56 "Hg1 mi
1:00 AM82 °FFog.1 mph89%29.56 "Hg2 mi
12:30 AM82 °FFog.1 mph84%29.59 "Hg2 mi
12:00 AM82 °FFog.1 mph84%29.59 "Hg2 mi
11:30 PM
Thu, Jul 28
84 °FFog.3 mph79%29.59 "Hg3 mi
11:00 PM84 °FFog.1 mph79%29.59 "Hg3 mi
10:30 PM84 °FFog.3 mph79%29.59 "Hg3 mi
10:00 PM84 °FFog.1 mph79%29.59 "Hg3 mi
9:30 PM84 °FFog.6 mph79%29.59 "Hg3 mi
9:00 PM84 °FFog.8 mph79%29.56 "Hg2 mi
8:30 PM84 °FFog.8 mph74%29.56 "Hg2 mi
8:00 PM84 °FHaze.6 mph74%29.56 "Hg2 mi
7:30 PM84 °FHaze.8 mph74%29.56 "Hg1 mi
7:00 PM86 °FHaze.8 mph70%29.56 "Hg1 mi
6:30 PM88 °FHaze.8 mph66%29.53 "Hg1 mi
6:00 PM88 °FHaze.8 mph66%29.53 "Hg1 mi
5:30 PM90 °FHaze.10 mph63%29.53 "Hg1 mi
5:00 PM90 °FHaze.10 mph67%29.53 "Hg1 mi
4:30 PM91 °FHaze.8 mph63%29.53 "Hg1 mi
4:00 PM90 °FScattered clouds.10 mph67%29.53 "Hg1 mi
3:30 PM90 °FScattered clouds.13 mph67%29.53 "Hg1 mi
3:00 PM91 °FScattered clouds.8 mph63%29.53 "Hg2 mi
2:30 PM91 °FScattered clouds.6 mph59%29.53 "Hg2 mi
2:00 PM91 °FScattered clouds.6 mph59%29.56 "Hg2 mi
1:30 PM90 °FScattered clouds.6 mph63%29.56 "Hg2 mi
1:00 PM90 °FScattered clouds.8 mph63%29.56 "Hg2 mi
12:30 PM90 °FHaze.10 mph63%29.56 "Hg3 mi
12:00 PM90 °FHaze.3 mph63%29.56 "Hg3 mi
Weather by CustomWeather, © 2016

See weather overviewHow to use our weather pages